Time,TemperatureF,DewpointF,PressureIn,WindDirection,WindDirectionDegrees,WindSpeedMPH,WindSpeedGustMPH,Humidity,HourlyPrecipIn,Conditions,Clouds,dailyrainin,SolarRadiationWatts/m^2,SoftwareType,DateUTC
2013-04-05 00:07:00,54.5,50.1,29.67,SSE,150,5.0,10.0,85,0.00,,,0.00,0,Wunderground v.1.15,2013-04-05 07:07:00,
2013-04-05 00:17:00,54.7,50.3,29.67,ESE,113,5.0,7.0,85,0.00,,,0.00,0,Wunderground v.1.15,2013-04-05 07:17:00,
2013-04-05 00:27:00,54.4,50.0,29.67,SE,133,5.0,5.0,85,0.00,,,0.00,0,Wunderground v.1.15,2013-04-05 07:27:00,
2013-04-05 00:37:00,54.4,49.7,29.67,SSE,161,4.0,4.0,84,0.00,,,0.00,0,Wunderground v.1.15,2013-04-05 07:37:00,
2013-04-05 00:47:00,54.4,49.7,29.67,SE,137,5.0,8.0,84,0.00,,,0.00,0,Wunderground v.1.15,2013-04-05 07:47:00,
2013-04-05 01:02:00,54.1,49.4,29.67,South,178,6.0,6.0,84,0.00,,,0.00,0,Wunderground v.1.15,2013-04-05 08:02:00,
2013-04-05 01:12:00,53.9,49.5,29.67,ESE,114,4.0,4.0,85,0.00,,,0.00,0,Wunderground v.1.15,2013-04-05 08:12:00,
2013-04-05 01:17:00,53.9,49.5,29.67,South,179,6.0,13.0,85,0.00,,,0.01,0,Wunderground v.1.15,2013-04-05 08:17:00,
2013-04-05 01:27:00,53.9,49.5,29.67,SSE,164,6.0,11.0,85,0.00,,,0.01,0,Wunderground v.1.15,2013-04-05 08:27:00,
2013-04-05 01:36:00,53.3,49.8,29.68,SE,145,7.0,9.0,88,0.43,,,0.04,0,Wunderground v.1.15,2013-04-05 08:36:00,
2013-04-05 01:46:00,52.3,50.0,29.68,SSW,205,5.0,5.0,92,0.10,,,0.07,0,Wunderground v.1.15,2013-04-05 08:46:00,
2013-04-05 01:56:00,51.7,49.7,29.68,SSE,165,3.0,3.0,93,0.07,,,0.08,0,Wunderground v.1.15,2013-04-05 08:56:00,
2013-04-05 02:06:00,51.3,49.3,29.68,WSW,240,5.0,10.0,93,0.17,,,0.11,0,Wunderground v.1.15,2013-04-05 09:06:00,
2013-04-05 02:16:00,51.6,49.6,29.67,SW,236,5.0,7.0,93,0.10,,,0.12,0,Wunderground v.1.15,2013-04-05 09:16:00,
2013-04-05 02:26:00,51.3,49.3,29.67,SSW,199,3.0,3.0,93,0.83,,,0.16,0,Wunderground v.1.15,2013-04-05 09:26:00,
2013-04-05 02:36:00,51.0,49.6,29.68,SSW,213,5.0,12.0,95,0.08,,,0.20,0,Wunderground v.1.15,2013-04-05 09:36:00,
2013-04-05 02:46:00,51.0,49.9,29.68,South,184,4.0,4.0,96,0.07,,,0.21,0,Wunderground v.1.15,2013-04-05 09:46:00,
2013-04-05 02:57:00,51.4,50.0,29.68,SSE,168,6.0,17.0,95,0.12,,,0.22,0,Wunderground v.1.15,2013-04-05 09:57:00,
2013-04-05 03:07:00,51.3,49.6,29.69,SSE,154,9.0,9.0,94,0.09,,,0.24,0,Wunderground v.1.15,2013-04-05 10:07:00,
2013-04-05 03:17:00,51.0,49.0,29.69,SE,130,8.0,8.0,93,0.05,,,0.25,0,Wunderground v.1.15,2013-04-05 10:17:00,
2013-04-05 03:27:00,50.8,48.8,29.69,SSW,205,6.0,13.0,93,0.04,,,0.25,0,Wunderground v.1.15,2013-04-05 10:27:00,
2013-04-05 03:36:00,51.0,48.8,29.68,SSW,199,7.0,12.0,92,0.00,,,0.25,0,Wunderground v.1.15,2013-04-05 10:36:00,
2013-04-05 03:46:00,51.0,48.8,29.68,SSW,192,6.0,12.0,92,0.00,,,0.25,0,Wunderground v.1.15,2013-04-05 10:46:00,
2013-04-05 03:56:00,51.1,48.9,29.68,SSE,152,8.0,8.0,92,0.00,,,0.25,0,Wunderground v.1.15,2013-04-05 10:56:00,
2013-04-05 04:11:00,51.1,48.9,29.68,ESE,119,8.0,8.0,92,0.00,,,0.26,0,Wunderground v.1.15,2013-04-05 11:11:00,
2013-04-05 04:16:00,51.1,48.9,29.68,SSE,157,7.0,8.0,92,0.06,,,0.27,0,Wunderground v.1.15,2013-04-05 11:16:00,
2013-04-05 04:26:00,51.1,49.4,29.68,SSW,199,4.0,11.0,94,0.17,,,0.30,0,Wunderground v.1.15,2013-04-05 11:26:00,
2013-04-05 04:31:00,51.0,49.3,29.68,SSW,193,3.0,3.0,94,0.08,,,0.30,0,Wunderground v.1.15,2013-04-05 11:31:00,
2013-04-05 04:36:00,50.8,49.1,29.68,South,174,4.0,4.0,94,0.06,,,0.31,0,Wunderground v.1.15,2013-04-05 11:36:00,
2013-04-05 04:51:00,50.7,49.0,29.69,SE,136,4.0,12.0,94,0.78,,,0.42,0,Wunderground v.1.15,2013-04-05 11:51:00,
2013-04-05 04:57:00,50.4,49.0,29.69,SSW,193,6.0,12.0,95,0.19,,,0.44,0,Wunderground v.1.15,2013-04-05 11:57:00,
2013-04-05 05:06:00,49.9,48.2,29.69,SW,229,7.0,11.0,94,0.13,,,0.46,0,Wunderground v.1.15,2013-04-05 12:06:00,
2013-04-05 05:27:00,49.4,48.0,29.70,SSW,198,5.0,6.0,95,0.07,,,0.48,0,Wunderground v.1.15,2013-04-05 12:27:00,
2013-04-05 05:40:00,49.8,48.7,29.70,SSW,206,3.0,9.0,96,0.05,,,0.49,0,Wunderground v.1.15,2013-04-05 12:40:00,
2013-04-05 05:46:00,50.1,49.3,29.70,SSW,210,5.0,7.0,97,0.04,,,0.49,0,Wunderground v.1.15,2013-04-05 12:46:00,
2013-04-05 06:00:00,50.5,49.4,29.70,SSE,155,7.0,7.0,96,0.00,,,0.49,0,Wunderground v.1.15,2013-04-05 13:00:00,
2013-04-05 06:06:00,50.5,49.4,29.70,South,184,5.0,7.0,96,0.00,,,0.49,0,Wunderground v.1.15,2013-04-05 13:06:00,
2013-04-05 06:16:00,50.5,49.4,29.70,SE,137,5.0,6.0,96,0.00,,,0.49,0,Wunderground v.1.15,2013-04-05 13:16:00,
2013-04-05 06:26:00,50.4,49.3,29.70,South,176,7.0,7.0,96,0.00,,,0.49,0,Wunderground v.1.15,2013-04-05 13:26:00,
2013-04-05 06:31:00,50.4,49.3,29.71,SSE,148,7.0,7.0,96,0.00,,,0.49,0,Wunderground v.1.15,2013-04-05 13:31:00,
2013-04-05 06:36:00,50.4,49.3,29.71,SSW,199,8.0,12.0,96,0.00,,,0.49,0,Wunderground v.1.15,2013-04-05 13:36:00,
2013-04-05 06:46:00,50.4,49.0,29.72,SSW,199,8.0,14.0,95,0.00,,,0.49,0,Wunderground v.1.15,2013-04-05 13:46:00,
2013-04-05 06:56:00,50.4,48.7,29.72,SSW,198,8.0,10.0,94,0.00,,,0.49,5,Wunderground v.1.15,2013-04-05 13:56:00,
2013-04-05 07:12:00,50.5,48.6,29.73,South,179,9.0,10.0,93,0.00,,,0.49,12,Wunderground v.1.15,2013-04-05 14:12:00,
2013-04-05 07:17:00,50.7,48.5,29.73,SE,137,9.0,10.0,92,0.00,,,0.49,18,Wunderground v.1.15,2013-04-05 14:17:00,
2013-04-05 07:27:00,50.7,48.5,29.73,SSE,148,8.0,8.0,92,0.00,,,0.49,26,Wunderground v.1.15,2013-04-05 14:27:00,
2013-04-05 07:40:00,50.7,48.5,29.74,SSE,152,9.0,9.0,92,0.00,,,0.49,30,Wunderground v.1.15,2013-04-05 14:40:00,
2013-04-05 07:46:00,50.8,48.3,29.75,South,178,8.0,18.0,91,0.00,,,0.49,32,Wunderground v.1.15,2013-04-05 14:46:00,
2013-04-05 07:56:00,51.0,48.2,29.75,SSW,196,10.0,10.0,90,0.00,,,0.49,30,Wunderground v.1.15,2013-04-05 14:56:00,
2013-04-05 08:11:00,51.0,47.9,29.75,South,188,9.0,9.0,89,0.00,,,0.49,28,Wunderground v.1.15,2013-04-05 15:11:00,
2013-04-05 08:16:00,51.0,47.9,29.76,South,176,8.0,9.0,89,0.00,,,0.49,25,Wunderground v.1.15,2013-04-05 15:16:00,
2013-04-05 08:26:00,51.1,48.0,29.76,SSW,202,10.0,10.0,89,0.00,,,0.49,70,Wunderground v.1.15,2013-04-05 15:26:00,
2013-04-05 08:41:00,51.4,48.3,29.76,South,172,10.0,10.0,89,0.00,,,0.49,190,Wunderground v.1.15,2013-04-05 15:41:00,
2013-04-05 08:47:00,51.7,48.6,29.77,South,174,8.0,10.0,89,0.00,,,0.49,143,Wunderground v.1.15,2013-04-05 15:47:00,
2013-04-05 08:57:00,51.9,48.8,29.77,SSW,196,8.0,11.0,89,0.00,,,0.49,239,Wunderground v.1.15,2013-04-05 15:57:00,
2013-04-05 09:07:00,51.9,48.8,29.77,ESE,121,8.0,8.0,89,0.00,,,0.49,134,Wunderground v.1.15,2013-04-05 16:07:00,
2013-04-05 09:17:00,51.9,49.1,29.77,SSW,193,6.0,8.0,90,0.00,,,0.49,160,Wunderground v.1.15,2013-04-05 16:17:00,
2013-04-05 09:31:00,51.9,49.1,29.78,South,175,7.0,7.0,90,0.00,,,0.49,160,Wunderground v.1.15,2013-04-05 16:31:00,
2013-04-05 09:37:00,52.0,48.9,29.78,South,188,6.0,7.0,89,0.00,,,0.49,132,Wunderground v.1.15,2013-04-05 16:37:00,
2013-04-05 09:51:00,52.2,48.8,29.78,SSW,209,7.0,10.0,88,0.00,,,0.49,236,Wunderground v.1.15,2013-04-05 16:51:00,
2013-04-05 09:56:00,52.2,48.4,29.78,SE,136,9.0,10.0,87,0.00,,,0.49,336,Wunderground v.1.15,2013-04-05 16:56:00,
2013-04-05 10:01:00,52.5,48.7,29.79,SE,134,9.0,9.0,87,0.00,,,0.49,313,Wunderground v.1.15,2013-04-05 17:01:00,
2013-04-05 10:06:00,52.5,48.1,29.79,SE,144,10.0,10.0,85,0.00,,,0.49,493,Wunderground v.1.15,2013-04-05 17:06:00,
2013-04-05 10:16:00,53.2,48.5,29.79,SSE,154,10.0,13.0,84,0.00,,,0.49,452,Wunderground v.1.15,2013-04-05 17:16:00,
2013-04-05 10:26:00,53.3,48.3,29.79,SSW,198,10.0,12.0,83,0.00,,,0.49,691,Wunderground v.1.15,2013-04-05 17:26:00,
2013-04-05 10:36:00,53.9,48.2,29.79,SSE,164,10.0,13.0,81,0.00,,,0.49,380,Wunderground v.1.15,2013-04-05 17:36:00,
2013-04-05 10:51:00,54.2,48.5,29.79,SSW,202,9.0,10.0,81,0.00,,,0.49,625,Wunderground v.1.15,2013-04-05 17:51:00,
2013-04-05 11:01:00,54.2,48.2,29.79,South,181,10.0,10.0,80,0.00,,,0.49,377,Wunderground v.1.15,2013-04-05 18:01:00,
2013-04-05 11:07:00,54.1,48.1,29.79,SSE,150,11.0,13.0,80,0.00,,,0.49,435,Wunderground v.1.15,2013-04-05 18:07:00,
2013-04-05 11:17:00,54.1,47.7,29.80,SSE,164,11.0,13.0,79,0.00,,,0.49,581,Wunderground v.1.15,2013-04-05 18:17:00,
2013-04-05 11:27:00,53.8,47.4,29.80,South,181,11.0,17.0,79,0.00,,,0.49,410,Wunderground v.1.15,2013-04-05 18:27:00,
2013-04-05 11:37:00,54.5,48.1,29.80,SW,220,9.0,17.0,79,0.00,,,0.49,391,Wunderground v.1.15,2013-04-05 18:37:00,
2013-04-05 11:46:00,54.7,47.6,29.80,South,185,9.0,16.0,77,0.00,,,0.49,301,Wunderground v.1.15,2013-04-05 18:46:00,
2013-04-05 12:00:00,54.7,48.0,29.80,SSW,202,10.0,10.0,78,0.00,,,0.49,459,Wunderground v.1.15,2013-04-05 19:00:00,
2013-04-05 12:06:00,55.0,47.6,29.80,South,171,9.0,10.0,76,0.00,,,0.49,523,Wunderground v.1.15,2013-04-05 19:06:00,
2013-04-05 12:20:00,55.6,47.4,29.80,South,178,8.0,10.0,74,0.00,,,0.49,303,Wunderground v.1.15,2013-04-05 19:20:00,
2013-04-05 12:26:00,54.8,47.0,29.80,SSW,200,9.0,10.0,75,0.00,,,0.49,218,Wunderground v.1.15,2013-04-05 19:26:00,
2013-04-05 12:36:00,53.9,47.2,29.81,SW,215,8.0,10.0,78,0.00,,,0.49,139,Wunderground v.1.15,2013-04-05 19:36:00,
2013-04-05 12:46:00,53.5,47.8,29.81,SSW,208,9.0,9.0,81,0.00,,,0.49,141,Wunderground v.1.15,2013-04-05 19:46:00,
2013-04-05 12:57:00,52.9,48.2,29.81,South,179,8.0,8.0,84,0.00,,,0.49,216,Wunderground v.1.15,2013-04-05 19:57:00,
2013-04-05 13:07:00,53.9,47.9,29.81,SSW,196,8.0,8.0,80,0.00,,,0.49,322,Wunderground v.1.15,2013-04-05 20:07:00,
2013-04-05 13:17:00,54.4,47.7,29.81,South,186,7.0,12.0,78,0.00,,,0.49,290,Wunderground v.1.15,2013-04-05 20:17:00,
2013-04-05 13:27:00,54.2,47.5,29.81,South,171,8.0,8.0,78,0.00,,,0.49,171,Wunderground v.1.15,2013-04-05 20:27:00,
2013-04-05 13:37:00,54.1,47.0,29.81,SSW,200,8.0,10.0,77,0.00,,,0.49,135,Wunderground v.1.15,2013-04-05 20:37:00,
2013-04-05 13:47:00,54.2,47.1,29.81,SSW,198,6.0,7.0,77,0.00,,,0.49,260,Wunderground v.1.15,2013-04-05 20:47:00,
2013-04-05 13:57:00,54.7,46.9,29.81,South,188,5.0,15.0,75,0.00,,,0.49,225,Wunderground v.1.15,2013-04-05 20:57:00,
2013-04-05 14:07:00,54.5,47.1,29.81,ESE,107,6.0,11.0,76,0.00,,,0.49,123,Wunderground v.1.15,2013-04-05 21:07:00,
2013-04-05 14:22:00,54.5,46.7,29.81,SSE,161,3.0,3.0,75,0.00,,,0.49,109,Wunderground v.1.15,2013-04-05 21:22:00,
2013-04-05 14:27:00,54.4,46.6,29.81,SSW,199,4.0,4.0,75,0.00,,,0.49,162,Wunderground v.1.15,2013-04-05 21:27:00,
2013-04-05 14:37:00,54.7,47.3,29.80,SSE,168,3.0,4.0,76,0.00,,,0.49,153,Wunderground v.1.15,2013-04-05 21:37:00,
2013-04-05 14:46:00,55.1,47.3,29.81,South,179,4.0,4.0,75,0.00,,,0.49,93,Wunderground v.1.15,2013-04-05 21:46:00,
2013-04-05 15:00:00,55.0,47.2,29.81,South,171,5.0,5.0,75,0.00,,,0.49,153,Wunderground v.1.15,2013-04-05 22:00:00,
2013-04-05 15:06:00,55.1,47.3,29.81,SE,137,3.0,5.0,75,0.00,,,0.49,165,Wunderground v.1.15,2013-04-05 22:06:00,
2013-04-05 15:21:00,55.6,47.1,29.80,South,182,3.0,3.0,73,0.00,,,0.49,134,Wunderground v.1.15,2013-04-05 22:21:00,
2013-04-05 15:26:00,55.7,47.2,29.80,South,191,4.0,5.0,73,0.00,,,0.49,128,Wunderground v.1.15,2013-04-05 22:26:00,
2013-04-05 15:36:00,55.7,47.2,29.80,South,184,4.0,7.0,73,0.00,,,0.49,123,Wunderground v.1.15,2013-04-05 22:36:00,
2013-04-05 15:47:00,55.7,47.2,29.80,South,186,3.0,8.0,73,0.00,,,0.49,130,Wunderground v.1.15,2013-04-05 22:47:00,
2013-04-05 16:01:00,55.7,47.2,29.80,South,179,5.0,5.0,73,0.00,,,0.49,99,Wunderground v.1.15,2013-04-05 23:01:00,
2013-04-05 16:07:00,55.6,47.1,29.80,South,191,4.0,9.0,73,0.00,,,0.49,99,Wunderground v.1.15,2013-04-05 23:07:00,
2013-04-05 16:17:00,55.4,46.9,29.80,South,188,6.0,11.0,73,0.00,,,0.49,109,Wunderground v.1.15,2013-04-05 23:17:00,
2013-04-05 16:27:00,55.4,46.9,29.80,SSE,155,6.0,7.0,73,0.00,,,0.49,100,Wunderground v.1.15,2013-04-05 23:27:00,
2013-04-05 16:37:00,55.1,47.0,29.80,SW,232,8.0,8.0,74,0.00,,,0.49,95,Wunderground v.1.15,2013-04-05 23:37:00,
2013-04-05 16:50:00,55.0,47.2,29.80,South,169,5.0,6.0,75,0.00,,,0.49,72,Wunderground v.1.15,2013-04-05 23:50:00,
2013-04-05 17:00:00,54.8,47.0,29.80,South,176,7.0,12.0,75,0.00,,,0.49,77,Wunderground v.1.15,2013-04-06 00:00:00,
2013-04-05 17:06:00,54.7,47.3,29.80,South,191,8.0,12.0,76,0.00,,,0.49,67,Wunderground v.1.15,2013-04-06 00:06:00,
2013-04-05 17:16:00,54.1,47.4,29.80,SSW,210,9.0,9.0,78,0.00,,,0.49,60,Wunderground v.1.15,2013-04-06 00:16:00,
2013-04-05 17:26:00,53.8,47.8,29.80,South,171,7.0,9.0,80,0.00,,,0.49,49,Wunderground v.1.15,2013-04-06 00:26:00,
2013-04-05 17:36:00,53.3,48.3,29.80,SSW,210,7.0,11.0,83,0.00,,,0.49,39,Wunderground v.1.15,2013-04-06 00:36:00,
2013-04-05 17:47:00,52.8,48.4,29.80,South,189,4.0,6.0,85,0.00,,,0.50,39,Wunderground v.1.15,2013-04-06 00:47:00,
2013-04-05 17:57:00,52.3,48.5,29.80,South,189,5.0,7.0,87,0.00,,,0.50,40,Wunderground v.1.15,2013-04-06 00:57:00,
2013-04-05 18:07:00,52.2,49.1,29.80,SSE,164,4.0,4.0,89,0.00,,,0.51,39,Wunderground v.1.15,2013-04-06 01:07:00,
2013-04-05 18:17:00,52.0,49.2,29.79,SSW,195,4.0,4.0,90,0.00,,,0.51,37,Wunderground v.1.15,2013-04-06 01:17:00,
2013-04-05 18:27:00,51.9,49.4,29.79,SSE,165,3.0,3.0,91,0.00,,,0.51,30,Wunderground v.1.15,2013-04-06 01:27:00,
2013-04-05 18:37:00,51.7,49.2,29.78,South,174,4.0,7.0,91,0.00,,,0.51,28,Wunderground v.1.15,2013-04-06 01:37:00,
2013-04-05 18:46:00,51.6,49.1,29.78,SSE,147,4.0,4.0,91,0.00,,,0.52,23,Wunderground v.1.15,2013-04-06 01:46:00,
2013-04-05 18:56:00,51.6,49.4,29.78,SSE,150,4.0,4.0,92,0.00,,,0.52,16,Wunderground v.1.15,2013-04-06 01:56:00,
2013-04-05 19:06:00,51.6,49.4,29.78,SSE,165,3.0,4.0,92,0.00,,,0.52,14,Wunderground v.1.15,2013-04-06 02:06:00,
2013-04-05 19:16:00,51.6,49.4,29.77,ESE,109,4.0,4.0,92,0.00,,,0.52,14,Wunderground v.1.15,2013-04-06 02:16:00,
2013-04-05 19:31:00,51.4,49.2,29.78,SW,215,4.0,4.0,92,0.40,,,0.55,7,Wunderground v.1.15,2013-04-06 02:31:00,
2013-04-05 19:36:00,50.7,48.2,29.78,SSW,206,5.0,12.0,91,0.18,,,0.58,0,Wunderground v.1.15,2013-04-06 02:36:00,
2013-04-05 19:46:00,49.4,46.6,29.78,SSW,205,9.0,9.0,90,0.07,,,0.59,0,Wunderground v.1.15,2013-04-06 02:46:00,
2013-04-05 19:57:00,49.2,46.7,29.78,South,182,6.0,13.0,91,0.00,,,0.59,0,Wunderground v.1.15,2013-04-06 02:57:00,
2013-04-05 20:07:00,48.8,46.3,29.78,SSW,210,4.0,5.0,91,0.00,,,0.60,0,Wunderground v.1.15,2013-04-06 03:07:00,
2013-04-05 20:17:00,48.6,46.4,29.77,South,169,4.0,4.0,92,0.00,,,0.60,0,Wunderground v.1.15,2013-04-06 03:17:00,
2013-04-05 20:27:00,48.6,46.1,29.77,SSW,199,3.0,3.0,91,0.00,,,0.60,0,Wunderground v.1.15,2013-04-06 03:27:00,
2013-04-05 20:37:00,48.5,46.0,29.77,South,171,3.0,3.0,91,0.00,,,0.60,0,Wunderground v.1.15,2013-04-06 03:37:00,
2013-04-05 20:46:00,48.5,46.0,29.77,SSE,147,2.0,2.0,91,0.00,,,0.60,0,Wunderground v.1.15,2013-04-06 03:46:00,
2013-04-05 20:56:00,48.6,46.4,29.77,SE,140,1.0,1.0,92,0.00,,,0.60,0,Wunderground v.1.15,2013-04-06 03:56:00,
2013-04-05 21:00:00,48.6,46.4,29.78,SE,138,2.0,2.0,92,0.00,,,0.60,0,Wunderground v.1.15,2013-04-06 04:00:00,
2013-04-05 21:06:00,48.6,46.4,29.78,South,176,2.0,2.0,92,0.00,,,0.60,0,Wunderground v.1.15,2013-04-06 04:06:00,
2013-04-05 21:16:00,48.8,46.6,29.77,ESE,110,4.0,4.0,92,0.00,,,0.60,0,Wunderground v.1.15,2013-04-06 04:16:00,
2013-04-05 21:26:00,49.2,46.7,29.77,ESE,116,5.0,8.0,91,0.00,,,0.60,0,Wunderground v.1.15,2013-04-06 04:26:00,
2013-04-05 21:36:00,49.5,46.7,29.77,ESE,110,5.0,8.0,90,0.00,,,0.60,0,Wunderground v.1.15,2013-04-06 04:36:00,
2013-04-05 21:46:00,49.5,47.0,29.76,ESE,110,5.0,6.0,91,0.00,,,0.60,0,Wunderground v.1.15,2013-04-06 04:46:00,
2013-04-05 21:51:00,49.5,47.3,29.76,ESE,112,5.0,5.0,92,0.00,,,0.60,0,Wunderground v.1.15,2013-04-06 04:51:00,
2013-04-05 21:56:00,49.4,46.9,29.76,ESE,119,5.0,5.0,91,0.00,,,0.60,0,Wunderground v.1.15,2013-04-06 04:56:00,
2013-04-05 22:01:00,49.5,46.7,29.76,ESE,116,5.0,5.0,90,0.00,,,0.60,0,Wunderground v.1.15,2013-04-06 05:01:00,
2013-04-05 22:06:00,49.6,46.5,29.76,ESE,119,3.0,5.0,89,0.00,,,0.60,0,Wunderground v.1.15,2013-04-06 05:06:00,
2013-04-05 22:11:00,49.6,46.5,29.76,ESE,106,4.0,4.0,89,0.00,,,0.60,0,Wunderground v.1.15,2013-04-06 05:11:00,
2013-04-05 22:21:00,49.8,47.0,29.75,SE,133,4.0,5.0,90,0.00,,,0.60,0,Wunderground v.1.15,2013-04-06 05:21:00,
2013-04-05 22:27:00,49.8,47.6,29.75,ESE,116,5.0,6.0,92,0.00,,,0.60,0,Wunderground v.1.15,2013-04-06 05:27:00,
2013-04-05 22:37:00,49.4,47.5,29.74,ESE,110,6.0,6.0,93,0.00,,,0.61,0,Wunderground v.1.15,2013-04-06 05:37:00,
2013-04-05 22:47:00,49.4,47.7,29.74,ESE,117,6.0,6.0,94,0.00,,,0.61,0,Wunderground v.1.15,2013-04-06 05:47:00,
2013-04-05 22:57:00,49.4,47.7,29.74,ESE,113,4.0,4.0,94,0.00,,,0.61,0,Wunderground v.1.15,2013-04-06 05:57:00,
2013-04-05 23:07:00,49.2,47.5,29.72,SE,130,5.0,5.0,94,0.00,,,0.61,0,Wunderground v.1.15,2013-04-06 06:07:00,
2013-04-05 23:17:00,49.1,47.4,29.72,ESE,110,6.0,6.0,94,0.00,,,0.61,0,Wunderground v.1.15,2013-04-06 06:17:00,
2013-04-05 23:27:00,49.1,47.4,29.72,ESE,117,5.0,6.0,94,0.00,,,0.62,0,Wunderground v.1.15,2013-04-06 06:27:00,
2013-04-05 23:37:00,48.8,47.2,29.70,ESE,120,4.0,5.0,94,0.00,,,0.62,0,Wunderground v.1.15,2013-04-06 06:37:00,
2013-04-05 23:56:00,48.8,47.4,29.69,ESE,117,3.0,3.0,95,0.04,,,0.64,0,Wunderground v.1.15,2013-04-06 06:56:00,